Location: Newark
(42.8481°N, 0.4872°E)
Time: 09:19:47
(UTC+00:00)

Vanguard 3 - Pass Details

Date: 29 October 2020
Orbit: 508 x 3262 km, 33.3° (Epoch: 27 November)

Event Time Altitude Azimuth Distance (km) Brightness Sun altitude
Rises 05:38:46 0° 239° (WSW) 6,248 11.2 -9.8°
Reaches altitude 10° 05:42:34 10° 235° (SW) 5,512 11.0 -9.1°
Maximum altitude 05:59:58 57° 163° (SSE) 3,637 10.6 -5.9°
Drops below altitude 10° 06:18:20 10° 92° (E) 5,794 13.2 -2.7°
Sets 06:22:26 0° 89° (E) 6,572 13.5 -2.0°
